SPACEMOBILE-003 (61045 NORAD) Tracking and Keplerian Element Data

This shows tracking and keplerian element data for the satellite.

Feedback or suggestion? Click here.




ElementValue
Catalog61045
NameSPACEMOBILE-003
Epoch Orbit463
Epoch Day286.86599311
Epoch Year2024
RAAN242.4037
Inclination52.9743
Eccentricity0.0013754
Argument of Perigee53.965
Mean Anonmoly306.2615
Mean Motion15.17319761
Decay Rate4.862E-05
L11 61045U 24163A 24286.86599311 .00004862 00000+0 25595-3 0 9994
L22 61045 52.9743 242.4037 0013754 53.9650 306.2615 15.17319761 4635



Live tracking and technical data element details for SPACEMOBILE-003 (NORAD 61045). SPACEMOBILE-003 can be tracked NOW for your location showing map with azimuth and elevation plus other details from your city location.







IsCatalogInMostPopularTable: catalog: 61045, numindb: 6
Update: records affected: 1



GetName: 61045 SPACEMOBILE-003

Hit Count: updated at: Tue, 03 Dec 2024 02:40:29 GMT